Fort Leonard Wood, MO

6:32 AM CST on November 18, 2017 (GMT -0600)
Waynesville Regional At Forney Field

Weather History for KTBN - November, 2012

Change the Weather History Date:

Monday, November 12, 2012

  Actual Average Record
Temperature  
Mean Temperature 34 °F -  
Max Temperature 45 °F 54 °F 78 °F (1999)
Min Temperature 24 °F 39 °F 19 °F (2013)
Degree Days  
Heating Degree Days 30    
Moisture  
Dew Point 23 °F    
Average Humidity 69    
Maximum Humidity 93    
Minimum Humidity 34    
Precipitation  
Precipitation 0.00 in - - ()
Sea Level Pressure  
Sea Level Pressure 30.34 in    
Wind  
Wind Speed 8 mph (West)    
Max Wind Speed 13 mph    
Max Gust Speed 24 mph    
Visibility 10 miles    
Events      
Averages and records for this station are not official NWS values.
T = Trace of Precipitation, MM = Missing Value Source: NWS Daily Summary

Daily Weather History Graph

Daily Weather History Graph

Search for Another Location

Airport or City:

Trip Planner

Search our weather history database for the weather conditions in past years. The results will help you decide how hot, cold, wet, or windy it might be!

Date:

Astronomy

Nov. 12, 2012 Rise Set
Actual Time 6:46 AM CST 4:59 PM CST
Civil Twilight 6:18 AM CST 5:26 PM CST
Nautical Twilight 5:46 AM CST 5:58 PM CST
Astronomical Twilight 5:15 AM CST 6:29 PM CST
Moon 5:12 AM CST (11/12) 4:04 PM CST (11/12)
Length of Visible Light 11h 08m
Length of Day
10h 13m
Waning Crescent, 2% of the Moon is Illuminated
Nov 12
Waning Crescent
Nov 13
New
Nov 20
First Quarter
Nov 28
Full
Dec 6
Last Quarter

Hourly Weather History & Observations

Time (CST) Temp. Windchill Dew Point Humidity Pressure Visibility Wind Dir Wind Speed Gust Speed Precip Events Conditions
12:24 AM 32.0 °F 23.6 °F 30.2 °F 93% 30.19 in 10.0 mi NW 10.4 mph 17.3 mph N/A   Overcast
12:34 AM 32.0 °F 22.5 °F 28.4 °F 87% 30.19 in 10.0 mi NNW 12.7 mph 18.4 mph N/A   Overcast
12:46 AM 32.0 °F 24.2 °F 28.4 °F 87% 30.21 in 10.0 mi NNW 9.2 mph - N/A   Overcast
12:55 AM 31.5 °F 26.8 °F 28.0 °F 87% 30.22 in 10.0 mi NW 4.6 mph - N/A   Mostly Cloudy
1:07 AM 32.0 °F 25.6 °F 28.4 °F 87% 30.22 in 10.0 mi NW 6.9 mph - N/A   Overcast
1:49 AM 30.2 °F 24.3 °F 28.4 °F 93% 30.23 in 10.0 mi NW 5.8 mph - N/A   Mostly Cloudy
1:55 AM 30.7 °F 22.0 °F 27.7 °F 88% 30.23 in 10.0 mi NW 10.4 mph - N/A   Mostly Cloudy
2:07 AM 30.2 °F 25.4 °F 26.6 °F 86% 30.24 in 10.0 mi WNW 4.6 mph - N/A   Scattered Clouds
2:55 AM 28.9 °F 22.8 °F 25.5 °F 87% 30.26 in 10.0 mi Variable 5.8 mph - N/A   Clear
3:55 AM 27.5 °F 22.2 °F 24.1 °F 87% 30.28 in 10.0 mi WNW 4.6 mph - N/A   Clear
4:55 AM 26.4 °F 20.9 °F 22.6 °F 86% 30.30 in 10.0 mi West 4.6 mph - N/A   Clear
5:55 AM 25.7 °F 20.1 °F 23.0 °F 89% 30.33 in 10.0 mi West 4.6 mph - N/A   Clear
6:55 AM 24.8 °F 20.5 °F 21.6 °F 87% 30.35 in 10.0 mi West 3.5 mph - N/A   Clear
7:55 AM 27.5 °F 19.3 °F 22.3 °F 81% 30.38 in 10.0 mi West 8.1 mph - N/A   Clear
8:55 AM 31.5 °F 24.9 °F 20.5 °F 64% 30.40 in 10.0 mi Variable 6.9 mph - N/A   Clear
9:55 AM 35.1 °F 30.1 °F 20.1 °F 55% 30.40 in 10.0 mi Variable 5.8 mph - N/A   Clear
10:55 AM 39.0 °F 32.3 °F 20.5 °F 47% 30.41 in 10.0 mi West 10.4 mph - N/A   Clear
11:55 AM 42.6 °F 35.9 °F 20.1 °F 41% 30.38 in 10.0 mi WNW 12.7 mph 18.4 mph N/A   Clear
12:55 PM 43.0 °F 38.2 °F 20.1 °F 40% 30.36 in 10.0 mi WSW 8.1 mph 19.6 mph N/A   Clear
1:55 PM 44.1 °F 39.0 °F 19.0 °F 37% 30.36 in 10.0 mi WNW 9.2 mph 24.2 mph N/A   Clear
2:55 PM 45.0 °F 39.3 °F 18.5 °F 35% 30.37 in 10.0 mi West 11.5 mph 20.7 mph N/A   Clear
3:55 PM 44.2 °F 39.2 °F 17.4 °F 34% 30.38 in 10.0 mi West 9.2 mph 19.6 mph N/A   Clear
4:55 PM 42.3 °F 37.9 °F 17.8 °F 37% 30.40 in 10.0 mi West 6.9 mph 17.3 mph N/A   Clear
5:55 PM 38.7 °F 35.2 °F 18.7 °F 45% 30.41 in 10.0 mi West 4.6 mph - N/A   Clear
6:55 PM 37.4 °F 34.9 °F 19.2 °F 48% 30.43 in 10.0 mi West 3.5 mph - N/A   Clear
7:55 PM 32.5 °F 28.1 °F 22.5 °F 66% 30.45 in 10.0 mi SW 4.6 mph - N/A   Clear
8:55 PM 31.1 °F 26.4 °F 22.5 °F 70% 30.45 in 10.0 mi SW 4.6 mph - N/A   Clear
9:55 PM 31.6 °F 27.0 °F 22.5 °F 69% 30.45 in 10.0 mi SW 4.6 mph - N/A   Clear
10:55 PM 30.6 °F 25.8 °F 23.0 °F 74% 30.46 in 10.0 mi SW 4.6 mph - N/A   Clear
11:55 PM 30.7 °F 26.0 °F 23.4 °F 74% 30.46 in 10.0 mi SW 4.6 mph - N/A   Clear